This is the latest recevied weather packets stored in our database for station/object AB8Y-13. If no packets are shown the sender has not sent any weather packets the latest 10 day(s).
| Time | Temp. | Humidity | Pressure | Rain* | Wind** | Luminosity | Snow |
|---|---|---|---|---|---|---|---|
| 1777517462 | 5.56° C | 77% | 1014.3 hPa | 0 mm | - | 0 W/m² | - |
| 1777517160 | 5.56° C | 76% | 1014.3 hPa | 0 mm | - | 0 W/m² | - |
| 1777516858 | 5.56° C | 75% | 1014.2 hPa | 0 mm | - | 0 W/m² | - |
| 1777516555 | 5.56° C | 76% | 1014.1 hPa | 0 mm | - | 0 W/m² | - |
| 1777516250 | 6.11° C | 77% | 1014.2 hPa | 0 mm | - | 0 W/m² | - |
| 1777515947 | 6.11° C | 77% | 1014.2 hPa | 0 mm | - | 0 W/m² | - |
| 1777515644 | 6.11° C | 75% | 1014 hPa | 0 mm | - | 0 W/m² | - |
| 1777515341 | 6.11° C | 78% | 1014.2 hPa | 0 mm | - | 0 W/m² | - |
| 1777515037 | 6.11° C | 75% | 1013.8 hPa | 0 mm | - | 0 W/m² | - |
| 1777514733 | 6.67° C | 75% | 1013.7 hPa | 0 mm | - | 0 W/m² | - |
| 1777514431 | 6.67° C | 74% | 1013.8 hPa | 0 mm | - | 0 W/m² | - |
| 1777514127 | 6.67° C | 72% | 1013.7 hPa | 0 mm | - | 0 W/m² | - |
| 1777513824 | 6.67° C | 72% | 1013.8 hPa | 0 mm | - | 0 W/m² | - |
| 1777513521 | 6.67° C | 70% | 1013.5 hPa | 0 mm | - | 0 W/m² | - |
| 1777513218 | 6.67° C | 70% | 1013.4 hPa | 0 mm | - | 0 W/m² | - |
| 1777512914 | 6.67° C | 70% | 1013.4 hPa | 0 mm | - | 0 W/m² | - |
| 1777512611 | 7.22° C | 71% | 1013.3 hPa | 0 mm | - | 0 W/m² | - |
| 1777512308 | 7.22° C | 67% | 1013.4 hPa | 0 mm | - | 0 W/m² | - |
| 1777512004 | 7.22° C | 70% | 1013.2 hPa | 0 mm | - | 0 W/m² | - |
| 1777511702 | 7.22° C | 70% | 1013.3 hPa | 0 mm | - | 0 W/m² | - |
| 1777511400 | 7.22° C | 68% | 1013.2 hPa | 0 mm | - | 0 W/m² | - |
| 1777511096 | 7.22° C | 74% | 1013.2 hPa | 0 mm | - | 0 W/m² | - |
| 1777510791 | 7.22° C | 75% | 1013.3 hPa | 0 mm | - | 0 W/m² | - |
| 1777510489 | 7.22° C | 74% | 1013.1 hPa | 0 mm | - | 0 W/m² | - |
| 1777510184 | 7.22° C | 71% | 1013.1 hPa | 0 mm | - | 0 W/m² | - |
* Rain latest hour (hover to see other rain measurements)
** Current wind speed in m/s (hover to see current wind gust speed)